When you browse on this site, cookies collect data to enhance your experience and personalize the content and advertising you see.
Visit our Privacy Policy to learn more. By continuing to use the site, you agree to this use of cookies and data.
  • In France
  • List of Countries
  • For 7 days
  • Water Temperature
  • Weather Map
  • Weather Widgets
  • user-avatar
    Login

    Hourly Weather Siempang

    Today, 4 April, Saturday

    Time Temperature Precipitation Wind Pressure Humidity
    00:00 +29°C° 0 mm 1 mps 752 mmHg 57%
    01:00 +29°C° 0 mm 1 mps 752 mmHg 60%
    02:00 +28°C° 0 mm 1 mps 752 mmHg 65%
    03:00 +27°C° 0 mm 1 mps 752 mmHg 71%
    04:00 +26°C° 0 mm 1 mps 752 mmHg 77%
    05:00 +26°C° 0 mm 1 mps 752 mmHg 76%
    06:00 +27°C° 0 mm 1 mps 753 mmHg 75%
    07:00 +27°C° 0 mm 1 mps 753 mmHg 72%
    08:00 +31°C° 0 mm 1 mps 753 mmHg 60%
    09:00 +34°C° 0 mm 1 mps 753 mmHg 47%
    10:00 +39°C° 0 mm 1 mps 753 mmHg 35%
    11:00 +41°C° 0 mm 1 mps 752 mmHg 31%
    12:00 +43°C° 0 mm 1 mps 751 mmHg 27%
    13:00 +44°C° 0 mm 1 mps 751 mmHg 24%
    14:00 +44°C° 0 mm 1 mps 750 mmHg 24%
    15:00 +43°C° 0 mm 1 mps 749 mmHg 23%
    16:00 +42°C° 0 mm 2 mps 749 mmHg 23%
    17:00 +40°C° 0 mm 1 mps 749 mmHg 28%
    18:00 +36°C° 0 mm 1 mps 749 mmHg 33%
    19:00 +31°C° 0 mm 0 mps 750 mmHg 41%
    20:00 +33°C° 0 mm 1 mps 751 mmHg 39%
    21:00 +34°C° 0 mm 2 mps 752 mmHg 38%
    22:00 +33°C° 0 mm 3 mps 752 mmHg 36%
    23:00 +31°C° 0 mm 2 mps 752 mmHg 41%

    Tomorrow, 5 April, Sunday

    Time Temperature Precipitation Wind Pressure Humidity
    00:00 +29°C° 0 mm 2 mps 752 mmHg 47%
    01:00 +28°C° 0 mm 2 mps 752 mmHg 52%
    02:00 +27°C° 0 mm 2 mps 752 mmHg 59%
    03:00 +26°C° 0 mm 1 mps 752 mmHg 66%
    04:00 +25°C° 0 mm 1 mps 752 mmHg 72%
    05:00 +25°C° 0 mm 1 mps 752 mmHg 71%
    06:00 +25°C° 0 mm 1 mps 753 mmHg 70%
    07:00 +26°C° 0 mm 1 mps 753 mmHg 69%
    08:00 +30°C° 0 mm 1 mps 753 mmHg 56%
    09:00 +34°C° 0 mm 1 mps 753 mmHg 44%
    10:00 +37°C° 0 mm 1 mps 754 mmHg 31%
    11:00 +40°C° 0 mm 1 mps 753 mmHg 28%
    12:00 +42°C° 0 mm 1 mps 751 mmHg 24%
    13:00 +44°C° 0 mm 1 mps 750 mmHg 20%
    14:00 +44°C° 0 mm 1 mps 750 mmHg 20%
    15:00 +43°C° 0 mm 1 mps 749 mmHg 20%
    16:00 +43°C° 0 mm 1 mps 748 mmHg 20%
    17:00 +40°C° 0 mm 1 mps 749 mmHg 26%
    18:00 +36°C° 0 mm 1 mps 749 mmHg 31%
    19:00 +34°C° 0 mm 1 mps 750 mmHg 37%
    20:00 +33°C° 0 mm 1 mps 751 mmHg 39%
    21:00 +34°C° 0 mm 2 mps 751 mmHg 40%
    22:00 +32°C° 0 mm 2 mps 752 mmHg 42%
    23:00 +31°C° 0 mm 2 mps 752 mmHg 46%

    Day after tomorrow, 6 April, Monday

    Time Temperature Precipitation Wind Pressure Humidity
    00:00 +29°C° 0 mm 2 mps 752 mmHg 50%
    01:00 +28°C° 0 mm 2 mps 752 mmHg 55%
    02:00 +27°C° 0 mm 1 mps 752 mmHg 60%
    03:00 +26°C° 0 mm 1 mps 752 mmHg 66%
    04:00 +25°C° 0 mm 1 mps 752 mmHg 72%
    05:00 +25°C° 0 mm 1 mps 752 mmHg 71%
    06:00 +26°C° 0 mm 1 mps 753 mmHg 70%
    07:00 +26°C° 0 mm 1 mps 753 mmHg 69%
    08:00 +30°C° 0 mm 1 mps 753 mmHg 58%
    09:00 +33°C° 0 mm 1 mps 753 mmHg 47%
    10:00 +37°C° 0 mm 1 mps 753 mmHg 36%
    11:00 +40°C° 0 mm 1 mps 752 mmHg 31%
    12:00 +42°C° 0 mm 1 mps 751 mmHg 26%
    13:00 +45°C° 0 mm 1 mps 750 mmHg 22%
    14:00 +44°C° 0 mm 1 mps 749 mmHg 22%
    15:00 +43°C° 0 mm 1 mps 749 mmHg 22%
    16:00 +42°C° 0 mm 1 mps 748 mmHg 23%
    17:00 +40°C° 0 mm 1 mps 748 mmHg 27%
    18:00 +34°C° 0 mm 0 mps 749 mmHg 30%
    19:00 +32°C° 0 mm 0 mps 749 mmHg 34%
    20:00 +31°C° 0.1 mm 0 mps 750 mmHg 38%
    21:00 +30°C° 0.1 mm 0 mps 750 mmHg 43%
    22:00 +29°C° 0.1 mm 0 mps 751 mmHg 47%
    23:00 +28°C° 0.5 mm 0 mps 751 mmHg 53%

    7 April, Tuesday

    Time Temperature Precipitation Wind Pressure Humidity
    00:00 +29°C° 0.5 mm 1 mps 751 mmHg 59%
    01:00 +28°C° 0.5 mm 1 mps 751 mmHg 65%
    02:00 +27°C° 0.1 mm 1 mps 751 mmHg 67%
    03:00 +27°C° 0.1 mm 1 mps 751 mmHg 70%
    04:00 +26°C° 0.1 mm 1 mps 751 mmHg 72%
    05:00 +27°C° 0.1 mm 1 mps 751 mmHg 71%
    06:00 +27°C° 0.1 mm 1 mps 752 mmHg 69%
    07:00 +27°C° 0.1 mm 1 mps 753 mmHg 68%
    08:00 +30°C° 0.1 mm 1 mps 753 mmHg 59%
    09:00 +33°C° 0.1 mm 1 mps 753 mmHg 49%
    10:00 +36°C° 0.1 mm 1 mps 753 mmHg 40%
    11:00 +39°C° 0 mm 1 mps 752 mmHg 37%
    12:00 +40°C° 0 mm 2 mps 751 mmHg 33%
    13:00 +42°C° 0 mm 2 mps 750 mmHg 29%
    14:00 +41°C° 0 mm 2 mps 749 mmHg 31%
    15:00 +40°C° 0 mm 2 mps 748 mmHg 32%
    16:00 +40°C° 0 mm 2 mps 748 mmHg 33%
    17:00 +37°C° 0 mm 1 mps 748 mmHg 38%
    18:00 +35°C° 0 mm 1 mps 748 mmHg 42%
    19:00 +33°C° 0 mm 1 mps 749 mmHg 47%
    20:00 +31°C° 0.2 mm 1 mps 749 mmHg 55%
    21:00 +30°C° 0.2 mm 1 mps 750 mmHg 63%
    22:00 +26°C° 0.2 mm 0 mps 751 mmHg 71%
    23:00 +27°C° 0.4 mm 1 mps 751 mmHg 76%

    8 April, Wednesday

    Time Temperature Precipitation Wind Pressure Humidity
    00:00 +26°C° 0.4 mm 1 mps 751 mmHg 82%
    01:00 +25°C° 0.4 mm 1 mps 750 mmHg 88%
    02:00 +25°C° 0.3 mm 1 mps 750 mmHg 89%
    03:00 +25°C° 0.3 mm 1 mps 751 mmHg 91%
    04:00 +24°C° 0.3 mm 1 mps 751 mmHg 93%
    05:00 +25°C° 0 mm 1 mps 751 mmHg 91%
    06:00 +26°C° 0 mm 1 mps 752 mmHg 89%
    07:00 +26°C° 0 mm 1 mps 752 mmHg 87%
    08:00 +29°C° 0 mm 1 mps 752 mmHg 74%
    09:00 +32°C° 0 mm 1 mps 752 mmHg 61%
    10:00 +36°C° 0 mm 2 mps 752 mmHg 47%
    11:00 +39°C° 0 mm 1 mps 751 mmHg 41%
    12:00 +41°C° 0 mm 1 mps 751 mmHg 34%
    13:00 +43°C° 0 mm 1 mps 750 mmHg 28%
    14:00 +42°C° 0 mm 1 mps 749 mmHg 29%
    15:00 +41°C° 0 mm 1 mps 749 mmHg 30%
    16:00 +40°C° 0 mm 2 mps 748 mmHg 31%
    17:00 +38°C° 0.1 mm 2 mps 749 mmHg 38%
    18:00 +35°C° 0.1 mm 1 mps 749 mmHg 45%
    19:00 +32°C° 0.1 mm 1 mps 750 mmHg 52%
    20:00 +31°C° 0.2 mm 1 mps 751 mmHg 60%
    21:00 +29°C° 0.2 mm 1 mps 751 mmHg 68%
    22:00 +27°C° 0.2 mm 1 mps 752 mmHg 76%
    23:00 +26°C° 0.4 mm 1 mps 752 mmHg 81%

    9 April, Thursday

    Time Temperature Precipitation Wind Pressure Humidity
    00:00 +25°C° 0.4 mm 1 mps 752 mmHg 85%
    01:00 +25°C° 0.4 mm 1 mps 751 mmHg 89%
    02:00 +24°C° 0.3 mm 1 mps 751 mmHg 91%
    03:00 +24°C° 0.3 mm 1 mps 751 mmHg 92%
    04:00 +24°C° 0.3 mm 1 mps 751 mmHg 93%
    05:00 +25°C° 0.1 mm 1 mps 752 mmHg 91%
    06:00 +25°C° 0.1 mm 1 mps 752 mmHg 88%
    07:00 +26°C° 0.1 mm 1 mps 753 mmHg 85%
    08:00 +29°C° 0.1 mm 1 mps 753 mmHg 71%
    09:00 +33°C° 0.1 mm 1 mps 753 mmHg 57%
    10:00 +36°C° 0.1 mm 1 mps 753 mmHg 43%
    11:00 +39°C° 0 mm 1 mps 752 mmHg 38%
    12:00 +41°C° 0 mm 1 mps 751 mmHg 32%
    13:00 +43°C° 0 mm 1 mps 750 mmHg 27%
    14:00 +42°C° 0 mm 1 mps 750 mmHg 30%
    15:00 +40°C° 0 mm 1 mps 749 mmHg 33%
    16:00 +37°C° 0 mm 1 mps 749 mmHg 36%
    17:00 +35°C° 0.2 mm 1 mps 749 mmHg 43%
    18:00 +33°C° 0.2 mm 1 mps 750 mmHg 50%
    19:00 +31°C° 0.2 mm 1 mps 750 mmHg 57%
    20:00 +30°C° 0.5 mm 1 mps 751 mmHg 65%
    21:00 +28°C° 0.5 mm 1 mps 752 mmHg 72%
    22:00 +27°C° 0.5 mm 1 mps 752 mmHg 79%
    23:00 +27°C° 0 mm 1 mps 752 mmHg 77%
    Show more